Regional Weather Roundup
Issued by NWS Charleston, SC

Current Version | Previous Version | Graphics & Text | Print | Product List | Glossary On
Versions: 1 2 3 4 5 6 7 8 9 10 11 12 13 14 15 16 17 18 19 20 21 22 23 24 25 26 27 28 29 30 31 32 33 34 35 36 37 38 39 40 41 42 43 44 45 46 47 48 49 50
000
ASUS42 KCHS 011711
RWRCHS

REGIONAL WEATHER ROUNDUP
NATIONAL WEATHER SERVICE CHARLESTON SC
1200 PM EST SUN FEB 01 2015

NOTE: "FAIR" INDICATES FEW OR NO CLOUDS BELOW 12,000 FEET WITH NO
SIGNIFICANT WEATHER AND/OR OBSTRUCTIONS TO VISIBILITY.

NOT ALL STATIONS ARE QUALITY CONTROLLED BY THE NATIONAL
WEATHER SERVICE. USE DATA WITH CAUTION...ESPECIALLY
DEWPOINT OBSERVATIONS.

SCZ027-030-031-034>040-042>050-011800-
...SOUTHEAST SOUTH CAROLINA...

CITY           SKY/WX    TMP DP  RH WIND       PRES   REMARKS
N CHARLESTON   MOSUNNY   64  41  42 SE14      30.25F
WATERFRONT PRK   N/A     57 N/A N/A E9          N/A
MOUNT PLEASANT FAIR      63  37  39 SE8       30.27F
PINOPOLIS        N/A     63  39  42 VRB2      30.19F
MONCKS CORNER  FAIR      63  39  42 S6        30.25F
SUMMERVILLE    FAIR      63  45  51 S12       30.25F
BEAUFORT MCAS  SUNNY     65  49  56 SE12G17   30.24F
BEAUFORT ARPT  FAIR      64  50  59 SE9       30.23F
HILTON HEAD IS SUNNY     63  50  63 SE6       30.26F
WALTERBORO     SUNNY     66  39  37 SE12      30.24F
ALLENDALE      FAIR      64  46  52 S8G15     30.20F

...SOUTHERN MIDLANDS AND PEE DEE...

CITY           SKY/WX    TMP DP  RH WIND       PRES   REMARKS
GEORGETOWN     NOT AVBL
KINGSTREE      NOT AVBL
ORANGEBURG     MOSUNNY   61  40  45 S12       30.22F
BARNWELL       FAIR      63  45  51 S10       30.21F
AIKEN          PTSUNNY   61  43  51 S17       30.22F
MANNING        FAIR      59  32  36 S7        30.25F
COLUMBIA       PTSUNNY   62  40  44 S13       30.20F
SUMTER         MOSUNNY   60  33  36 S12       30.20F
FLORENCE       MOSUNNY   60  34  37 S10       30.24F
MYRTLE BEACH   MOSUNNY   57  39  51 S12       30.30F
N MYRTLE BEACH MOSUNNY   56  38  50 S8        30.27F

$$

GAZ063-065-086>088-099>101-113>116-118-119-134>141-150-011800-
...SOUTHEAST GEORGIA...

CITY           SKY/WX    TMP DP  RH WIND       PRES   REMARKS
SAVANNAH ARPT  PTSUNNY   67  46  47 S17       30.23F
HUNTER AAF     SUNNY     67  49  52 SE13      30.21F
FORT STEWART   MOSUNNY   70  48  44 S13       30.18F
STATESBORO     SUNNY     65  48  53 S14G20    30.20F
SYLVANIA       SUNNY     65  49  56 S8        30.21F
CLAXTON        FAIR      66  50  55 S10G17    30.20F

...CSRA...CENTRAL AND FAR SOUTHEAST GEORGIA...

CITY           SKY/WX    TMP DP  RH WIND       PRES   REMARKS
THOMSON        MOSUNNY   64  48  57 S14G20    30.21F
AUGUSTA-BUSH   SUNNY     62  42  47 S14G22    30.19F
AUGUSTA-DANIEL SUNNY     60  40  47 SE9       30.19F
SWAINSBORO     FAIR      68  34  28 S16       30.19F
VIDALIA        SUNNY     64  50  59 S10G16    30.18F
EASTMAN        FAIR      67  50  54 S10G22    30.18F
HAZLEHURST     FAIR      68  51  53 S9        30.17F
ALMA           SUNNY     67  48  50 S15G22    30.19F
WAYCROSS       SUNNY     71  53  52 S14G22    30.19F
JESUP          FAIR      72  52  49 S12G23    30.20F
BAXLEY         FAIR      70  50  49 S15       30.19F
BRUNSWICK      SUNNY     70  46  43 SE14      30.23F
SAINT SIMONS   SUNNY     66  49  54 SE8       30.23F

$$

SCZ027-028-034-036>038-045-046-048>050-GAZ119-141-011800-
...LAKE AND SUPPLEMENTAL COASTAL OBSERVATIONS...

STATION/POSITION TIME  TEMP    WIND        PRES    WAVE   SWELL
                       AIR SEA DIR/SP/G            HT/PER HT/PER/DIR
                 (UTC) (F)     (DEG/KT/KT) (MB)    (FT/S) (FT/S/D)
UPR LAKE MARION  NOT AVBL
WINYAH BAY       1545   54     130/  4     1026.0
LAKE MURRAY      1600   52     140/  3/  4 1023.4F
ACE BASIN NERRS  NOT AVBL
FORT PULASKI     1600   62 52  120/  7/ 11 1025.4F
SAPELO ISLAND    1600   67     140/  8     1024.0F

$$

ANZ835-935-AMZ111-154-330-350-352-354-370-450-454-472-011800-
...C-MAN AND BUOY OBSERVATIONS...

STATION/POSITION TIME  TEMP    WIND        PRES    WAVE   SWELL
                       AIR SEA DIR/SP/G            HT/PER HT/PER/DIR
                 (UTC) (F)     (DEG/KT/KT) (MB)    (FT/S) (FT/S/D)
BUOY 41004       1650   62 71  180/ 10/ 14 1025.4F   4/11   3/11
BUOY 41008       1650   58 54  110/  6/  8 1023.9F   2/10   2/ 80/10
FOLLY BEACH CMAN 1700   54      90/  6/  6 1025.0F
CAPERS NEARSHORE 1600   55     100/  4/  6   N/A
FRIPP NEARSHORE  1600   58     100/  6/  6 1024.8F


STATION/POSITION TIME  TEMP    WIND        PRES    WAVE   SWELL
                       AIR SEA DIR/SP/G            HT/PER HT/PER/DIR
                 (UTC) (F)     (DEG/KT/KT) (MB)    (FT/S) (FT/S/D)
5E ST. MARYS GA  1621      57                N/A     3/10   2/ 90/11
FRYING PAN BUOY  1650   58 63  190/ 12/ 16 1026.5F   2/11   2/ 80/11
BUOY 41025       1650   53 71  270/ 14/ 17 1025.8F   5/10   5/ 60/10
CAPE LOOKOUT NC  1600   49     270/  7/ 10 1026.8R
BUOY 41002       1650   60 70  230/  2/  6 1027.9F   8/11   8/ 10/11
BUOY 41010       1620   67 74  110/ 12/ 16 1025.8F
ST AUGUSTINE FL  1700   61      70/  5/  5 1024.4F


$$



USA.gov is the U.S. government's official web portal to all federal, state and local government web resources and services.